[TLELIST] Archives

 

Current TLEs

June 15th 2008 PDT

HST 1 20580U 90037B 08166.81602402 .00000274 00000-0 83796-5 0 1575 2 20580 028.4689 338.6935 0003421 357.8879 002.1697 15.00385711794622 ISS (ZARYA) 1 25544U 98067A 08167.14191554 .00009970 00000-0 64227-4 0 6696 2 25544 051.6419 026.9297 0005688 333.9347 115.8057 15.76908717548209 CXO 1 25867U 99040B 08164.91666667 +.00000265 +00000-0 +10000-3 0 02097 2 25867 063.7513 080.5602 6827273 278.9382 356.7929 00.37805193003617 ____________________________________________________________________ These 2-Line ...Continue Reading

Current TLEs

June 14th 2008 PDT

HST 1 20580U 90037B 08165.55216630 .00000253 00000-0 67136-5 0 1565 2 20580 028.4690 346.9359 0003452 343.7475 016.3007 15.00385298794437 ISS (ZARYA) 1 25544U 98067A 08166.19278128 .00010060 00000-0 64820-4 0 6649 2 25544 051.6412 031.8249 0005713 329.8004 128.2206 15.76888928548055 CXO 1 25867U 99040B 08164.91666667 +.00000265 +00000-0 +10000-3 0 02097 2 25867 063.7513 080.5602 6827273 278.9382 356.7929 00.37805193003617 ____________________________________________________________________ These 2-Line ...Continue Reading

Current TLEs

June 13th 2008 PDT

HST 1 20580U 90037B 08163.88919472 +.00000243 +00000-0 +59602-5 0 01561 2 20580 028.4691 357.7789 0003451 326.0892 033.9476 15.00384978794182 ISS (ZARYA) 1 25544U 98067A 08163.84755287 +.00000206 +00000-0 +53030-5 0 06489 2 25544 051.6402 043.9198 0005684 321.9601 133.8438 15.76737382547688 CXO 1 25867U 99040B 08164.91666667 +.00000265 +00000-0 +10000-3 0 02097 2 25867 063.7513 080.5602 6827273 278.9382 356.7929 00.37805193003617 ____________________________________________________________________ These 2-Line ...Continue Reading

Current TLEs

June 12th 2008 PDT

HST 1 20580U 90037B 08163.88919474 .00000240 00000-0 57059-5 0 1553 2 20580 028.4691 357.7789 0003451 326.0838 033.9530 15.00384954794187 ISS (ZARYA) 1 25544U 98067A 08164.22826546 .00053995 00000-0 32874-3 0 6528 2 25544 051.6441 041.9589 0005719 319.5149 138.9733 15.76881972547748 CXO 1 25867U 99040B 08162.25000000 +.00000307 +00000-0 +10000-3 0 02081 2 25867 063.7377 080.6146 6822819 278.9859 353.6967 00.37805746003600 ____________________________________________________________________ These 2-Line ...Continue Reading

Current TLEs

June 11th 2008 PDT

HST 1 20580U 90037B 08161.96014833 +.00000261 +00000-0 +73009-5 0 01573 2 20580 028.4686 010.3606 0003517 305.8321 054.1940 15.00384671793899 ISS (ZARYA) 1 25544U 98067A 08162.26318523 -.00000157 00000-0 30927-5 0 6387 2 25544 051.6408 052.0866 0005617 323.7185 132.7478 15.76735819547438 CXO 1 25867U 99040B 08162.25000000 +.00000307 +00000-0 +10000-3 0 02081 2 25867 063.7377 080.6146 6822819 278.9859 353.6967 00.37805746003600 ____________________________________________________________________ These 2-Line ...Continue Reading

Current TLEs

June 10th 2008 PDT

HST 1 20580U 90037B 08161.89362961 .00000255 00000-0 68281-5 0 1549 2 20580 028.4686 010.7946 0003524 305.1106 054.9154 15.00384611793880 ISS (ZARYA) 1 25544U 98067A 08162.26318523 -.00000157 00000-0 30927-5 0 6387 2 25544 051.6408 052.0866 0005617 323.7185 132.7478 15.76735819547438 CXO 1 25867U 99040B 08162.25000000 +.00000307 +00000-0 +10000-3 0 02081 2 25867 063.7377 080.6146 6822819 278.9859 353.6967 00.37805746003600 ____________________________________________________________________ These 2-Line ...Continue Reading

Current TLEs

June 9th 2008 PDT

HST 1 20580U 90037B 08159.96458285 +.00000306 +00000-0 +10832-4 0 01780 2 20580 028.4683 023.3738 0003528 284.4510 075.5687 15.00384501793594 ISS (ZARYA) 1 25544U 98067A 08161.31384457 -.00000637 00000-0 17175-6 0 6329 2 25544 051.6415 056.9865 0005549 313.7543 150.3582 15.76744885547287 CXO 1 25867U 99040B 08159.62500000 +.00000295 +00000-0 +10000-3 0 02078 2 25867 063.7321 080.7062 6817343 279.0152 356.2901 00.37803594003595 ____________________________________________________________________ These 2-Line ...Continue Reading

Current TLEs

June 8th 2008 PDT

HST 1 20580U 90037B 08160.16413949 .00000305 00000-0 10766-4 0 1530 2 20580 028.4682 022.0726 0003559 287.8962 072.1235 15.00384504793627 ISS (ZARYA) 1 25544U 98067A 08160.47070602 .00004996 00000-0 34500-4 0 6273 2 25544 051.6409 061.3309 0005524 320.2340 034.7621 15.76711678547142 CXO 1 25867U 99040B 08159.62500000 +.00000295 +00000-0 +10000-3 0 02078 2 25867 063.7321 080.7062 6817343 279.0152 356.2901 00.37803594003595 ____________________________________________________________________ These 2-Line ...Continue Reading

Current TLEs

June 7th 2008 PDT

HST 1 20580U 90037B 08158.90028263 .00000272 00000-0 81941-5 0 1526 2 20580 028.4683 030.3204 0003680 272.7154 087.3014 15.00383877793436 ISS (ZARYA) 1 25544U 98067A 08159.34884612 .00000029 00000-0 42304-5 0 6209 2 25544 051.6384 067.1120 0005643 312.2684 150.5276 15.76733454546972 CXO 1 25867U 99040B 08156.95833333 +.00000300 +00000-0 +10000-3 0 02065 2 25867 063.7286 080.7776 6809184 279.0829 353.1942 00.37795398003584 ____________________________________________________________________ These 2-Line ...Continue Reading

Current TLEs

June 6th 2008 PDT

HST 1 20580U 90037B 08157.76946245 .00000275 00000-0 83645-5 0 1513 2 20580 028.4684 037.7000 0003854 258.7276 101.2876 15.00383659793265 ISS (ZARYA) 1 25544U 98067A 08158.33416863 -.00007633 00000-0 -42532-4 0 6141 2 25544 051.6389 072.3451 0005602 304.9561 154.3623 15.76710348546817 CXO 1 25867U 99040B 08156.95833333 +.00000300 +00000-0 +10000-3 0 02065 2 25867 063.7286 080.7776 6809184 279.0829 353.1942 00.37795398003584 ____________________________________________________________________ These 2-Line ...Continue Reading
  • This mailing list is a public mailing list - anyone may join or leave, at any time.
  • This mailing list is announce-only.

International Space Station (ISS) / Hubble Space Telescope (HST) / Chandra X-Ray Observatory Orbital Data via EMAIL

Privacy Policy:

Private list